Regional Weather Roundup
Issued by NWS

Home | Current Version | Previous Version | Graphics & Text | Print | Product List | Glossary On
Versions: 1 2 3 4 5 6 7 8 9 10 11 12 13 14 15 16 17 18 19 20 21 22 23 24 25 26 27 28 29 30 31 32 33 34 35 36 37 38 39 40 41 42 43 44 45 46 47 48 49 50
000
ASUS45 KBOU 021507
RWRCO

WEATHER ROUNDUP FOR COLORADO
NATIONAL WEATHER SERVICE DENVER/BOULDER CO
900 AM MDT TUE JUN 02 2015

NOTE: "FAIR" INDICATES FEW OR NO CLOUDS BELOW 12000 FEET WITH NO
SIGNIFICANT WEATHER AND/OR OBSTRUCTIONS TO VISIBILITY.

COZ001>005-013-030-031-021600-
...NORTHWEST COLORADO...

CITY           SKY/WX    TMP DP  RH WIND       PRES   REMARKS
CRAIG          SUNNY     64  42  44 NE7       30.07F
HAYDEN         SUNNY     59  43  55 SE8       30.10R
MEEKER         SUNNY     61  41  47 CALM      30.09F
MOUNT WERNER   NOT AVBL
STEAMBOAT SPGS SUNNY     56  41  58 CALM      30.12S
WALDEN         SUNNY     57  37  47 SW3       30.18S
$$

COZ006>008-011-021600-
...WEST CENTRAL VALLEYS...

CITY           SKY/WX    TMP DP  RH WIND       PRES   REMARKS
GRAND JUNCTION SUNNY     74  31  20 SE12      30.01S
MONTROSE       SUNNY     73  31  21 CALM      30.11F
EAGLE          SUNNY     66  48  52 CALM      30.16F
RIFLE          SUNNY     63  44  50 CALM      30.07S
DELTA          SUNNY     73  32  22 E7        30.08S
NUCLA          SUNNY     72  23  16 S14       30.16S
$$

COZ017>023-064>068-021600-
...SOUTHWEST COLORADO...

CITY           SKY/WX    TMP DP  RH WIND       PRES   REMARKS
DURANGO        SUNNY     61  40  45 E8        30.22S
CORTEZ         SUNNY     68  34  28 CALM      30.16R
PAGOSA SPRINGS SUNNY     61  34  36 CALM      30.29S
TELLURIDE      SUNNY     61  28  28 CALM      30.33S
WOLF CREEK PAS NOT AVBL
$$

COZ009-010-012-014-032>034-037-058>063-021600-
...CENTRAL COLORADO...

CITY           SKY/WX    TMP DP  RH WIND       PRES   REMARKS
ASPEN          SUNNY     64  30  27 VRB3      30.19S
BUENA VISTA    MOSUNNY   56  37  48 CALM      30.25S
COPPER MTN     MOSUNNY   46  16  29 SW12      30.47R
BERTHOUD PASS  FAIR      41  32  70 W21G35    30.49R
COTTONWOOD PAS NOT AVBL
GUNNISON       SUNNY     52  39  62 CALM      30.30F
KREMMLING      SUNNY     54  37  54 CALM      30.19F
LEADVILLE      MOSUNNY   51  33  50 S5        30.33S
MONARCH PASS   MOSUNNY   43  23  45 W16       30.58R
SALIDA         MOSUNNY   60  42  51 N5        30.29F
SUNLIGHT       SUNNY     52  25  35 CALM      30.41R
WILKERSON PASS MOSUNNY   48  32  53 SW8       30.45S
$$

COZ069>075-021600-
...SAN LUIS VALLEY/SANGRE DE CRISTO MOUNTAINS...

CITY           SKY/WX    TMP DP  RH WIND       PRES   REMARKS
ALAMOSA        SUNNY     60  38  43 S3        30.25S
LA VETA PASS   PTSUNNY  N/A N/A N/A MISG      30.39R
SAGUACHE       MOSUNNY   55  41  58 CALM      30.28S
$$

COZ035-036-038>040-021600-
...NORTHERN COLORADO FRONT RANGE...

CITY           SKY/WX    TMP DP  RH WIND       PRES   REMARKS
DENVER INTL AP MOSUNNY   65  54  67 W7        30.00S
DMNS CITY PARK   N/A     69  50  50 SW5       30.00S
AURORA         MOSUNNY   67  50  53 SW8       30.02F
FRONT RANGE AP PTSUNNY   68  37  32 SW10      30.01S
ERIE MUNI ARPT MOSUNNY   64  54  69 CALM      29.99F
BOULDER MUN AP MOSUNNY   63  52  67 CALM      30.00S
CENTENNIAL     PTSUNNY   72  42  34 W16       30.02F
BROOMFIELD     MOSUNNY   64  52  63 CALM      30.02F
FORT COLLINS   SUNNY     63  55  77 CALM      30.00S
LONGMONT       SUNNY     70  50  49 S3        30.00F
$$

COZ041-046-047-076>085-087-088-021600-
...PIKES PEAK/PALMER DIVIDE AND SOUTHERN FOOTHILLS...

CITY           SKY/WX    TMP DP  RH WIND       PRES   REMARKS
COLO. SPRINGS  PTSUNNY   74  44  34 S3        30.07S
A. F. ACADEMY  SUNNY     72  35  25 VRB5      30.08F
ELLICOTT       SUNNY    N/A N/A N/A W10       30.06S
FALCON         SUNNY     74  32  21 CALM      30.13R
FORT CARSON    SUNNY     73  49  43 SE2       30.04S
LIMON          MOSUNNY   67  53  61 S10       30.02F
MONUMENT HILL  SUNNY     70  37  30 SE14      30.13R
TRINIDAD       SUNNY     74  44  34 W13       30.06F
$$

COZ042>045-048>051-090-091-021600-
...NORTHEAST COLORADO...

CITY           SKY/WX    TMP DP  RH WIND       PRES   REMARKS
GREELEY ARPT   SUNNY     64  57  77 W6        29.98S
AKRON          MOSUNNY   67  60  78 S14       29.96S
BURLINGTON     CLOUDY    64  60  87 S18       29.96S
WRAY           SUNNY     71  59  66 S9        29.94S
STERLING       MOSUNNY   68  59  73 SW6       29.93S
HOLYOKE        NOT AVBL
FORT MORGAN    MOSUNNY   68  57  67 W7        29.96S
$$

COZ086-089-092>099-021600-
...SOUTHEAST COLORADO...

CITY           SKY/WX    TMP DP  RH WIND       PRES   REMARKS
PUEBLO         MOSUNNY   68  52  56 S3        29.99S
LA JUNTA       SUNNY     69  56  62 MISG      29.97S
LAMAR          SUNNY     70  60  70 VRB6      29.93S
SPRINGFIELD      N/A     76  51  41 N6        29.98F
$$


USA.gov is the U.S. government's official web portal to all federal, state and local government web resources and services.